Orbital Elements at Epoch 2459000.5 (2020-May-31.0) TDB
Reference: JPL 32 (heliocentric ecliptic J2000)
Element | Value | Uncertainty (1-sigma) | Units |
e | .4881512138476434 | 3.1886e-07 | |
a | 1.108411663914407 | 5.9758e-09 | au |
q | .5673391647317032 | 3.5417e-07 | au |
i | 54.30730850556274 | 4.2337e-05 | deg |
node | 195.5787937185543 | 8.9816e-06 | deg |
peri | 336.3286330357047 | 2.1685e-05 | deg |
M | 155.164069858384 | 6.3216e-05 | deg |
tp | 2458816.787494858543 (2019-Nov-29.28749486) | 7.4425e-05 | TDB |
period | 426.2359314968099 1.17 | 3.447e-06 9.437e-09 | d yr |
n | .8446026564109467 | 6.8303e-09 | deg/d |
Q | 1.649484163097111 | 8.8929e-09 | au |
|
| | Orbit Determination Parameters
Additional Information
|